User: anonymous
Location: Scultetus-Sternwarte G�rlitz
(51.1356°N, 14.9514°E)
Time: 23:53:33
(UTC+02:00)
Language:

Iridium 3 - Orbit

View from above orbital plane
View from above orbital plane
View from above satellite
View from above satellite

Ground track
Ground track

The orbit data is extracted from the following two-line orbital elements,

1 25431U 98048A   14106.40360953  .00000448  00000-0  15284-3 0  6868
2 25431 086.4007 019.6262 0002167 104.5703 033.7271 14.34222959819668
Epoch (UTC): 16 April 2014 09:41:11
Eccentricity: 0.0002167
inclination: 86.4007°
perigee height: 776 km
apogee height: 779 km
right ascension of ascending node: 19.6262°
argument of perigee: 104.5703°
revolutions per day: 14.34222959
mean anomaly at epoch: 33.7271°
orbit number at epoch: 81966

The dashed part of the orbit path shows where the satellite is in the earth's shadow,  

DLR